Regional Weather Roundup
Issued by NWS

Home | Current Version | Previous Version | Graphics & Text | Print | Product List | Glossary On
Versions: 1 2 3 4 5 6 7 8 9 10 11 12 13 14 15 16 17 18 19 20 21 22 23 24 25 26 27 28 29 30 31 32 33 34 35 36 37 38 39 40 41 42 43 44 45 46 47 48 49 50
000
ASUS43 KLMK 190202
RWRKY
KENTUCKY REGIONAL WEATHER ROUNDUP
NATIONAL WEATHER SERVICE LOUISVILLE KY
1000 PM EDT THU SEP 18 2014

NOTE "FAIR" INDICATES FEW OR NO CLOUDS BELOW 12,000 FEET
WITH NO SIGNIFICANT WEATHER AND/OR OBSTRUCTIONS TO VISIBILITY.

KYZ001>023-026-027-061>063-070>075-190300-
WESTERN AND SOUTH CENTRAL KENTUCKY

CITY           SKY/WX    TMP DP  RH WIND       PRES   REMARKS
PADUCAH        PTCLDY    69  58  67 NE6       30.03R
HENDERSON      CLEAR     57  52  82 CALM      30.06R
OWENSBORO      CLEAR     66  55  67 CALM      30.07R
HOPKINSVILLE   CLEAR     63  59  87 NE7       30.03R
BOWLING GREEN  CLEAR     62  54  74 CALM      30.05R
GLASGOW        CLEAR     58  54  85 CALM      30.05R
$$

KYZ024-025-028>034-038-045-046-053-190300-
NORTH CENTRAL KENTUCKY

CITY           SKY/WX    TMP DP  RH WIND       PRES   REMARKS
LOUISVILLE/SDF CLEAR     66  50  56 NE6       30.07R
LOUISVILLE/LOU CLEAR     65  50  58 NE5       30.08R
FORT KNOX      CLEAR     62  53  72 NE7       30.06R
$$

KYZ035>037-039>044-047>052-055>060-089>105-190300-
NORTHEAST KENTUCKY

CITY           SKY/WX    TMP DP  RH WIND       PRES   REMARKS
LEXINGTON      CLEAR     63  50  62 E8        30.09R
COVINGTON      CLEAR     63  46  54 E8        30.11R
FRANKFORT      CLEAR     57  52  83 N3        30.08R
$$

KYZ054-064>069-076>088-106>120-190300-
SOUTHEAST KENTUCKY

CITY           SKY/WX    TMP DP  RH WIND       PRES   REMARKS
JACKSON        CLEAR     62  52  69 CALM      30.09R
LONDON         CLEAR     62  54  74 N5        30.08R
SOMERSET       NOT AVBL
MIDDLESBORO    CLEAR     61  57  87 CALM      30.08R
MONTICELLO     CLEAR     58  56  93 CALM      30.08R
$$



USA.gov is the U.S. government's official web portal to all federal, state and local government web resources and services.